Fargo, ND

2:12 AM CDT on October 23, 2019 (GMT -0500)
Hector International

Weather History for KFAR - August, 2019

Change the Weather History Date:

Wednesday, August 7, 2019

  Actual Average Record
Temperature  
Mean Temperature 65 °F 71 °F  
Max Temperature 76 °F 83 °F 101 °F (1949)
Min Temperature 53 °F 59 °F 42 °F (1904)
Degree Days  
Heating Degree Days 0 1  
Month to date heating degree days 0 3  
Since 1 June heating degree days 64 92  
Since 1 July heating degree days 6 19  
Cooling Degree Days 0 6  
Month to date cooling degree days 57 48  
Year to date cooling degree days 435 388  
Since 1 June cooling degree days 425 357  
Growing Degree Days 14 (Base 50)    
Moisture  
Dew Point 58 °F    
Average Humidity 69    
Maximum Humidity 93    
Minimum Humidity 44    
Precipitation  
Precipitation 0.00 in 0.08 in 1.61 in (1931)
Month to date precipitation 0.97 0.50  
Year to date precipitation 17.31 13.97  
Snow  
Snow 0.00 in 0.00 in 0.00 in ()
Month to date snowfall 0.0 0.0  
Since 1 June snowfall 0.0 0.0  
Since 1 July snowfall 0.0 0.0  
Snow Depth 0.00 in    
Sea Level Pressure  
Sea Level Pressure 29.83 in    
Wind  
Wind Speed 10 mph (NW)    
Max Wind Speed 21 mph    
Max Gust Speed 28 mph    
Visibility 10 miles    
Events      
T = Trace of Precipitation, MM = Missing Value Source: NWS Daily Summary

Daily Weather History Graph

Daily Weather History Graph

Search for Another Location

Airport or City:

Astronomy

Aug. 07, 2019 Rise Set
Actual Time 6:14 AM CDT 8:51 PM CDT
Civil Twilight 5:39 AM CDT 9:25 PM CDT
Nautical Twilight 4:55 AM CDT 10:08 PM CDT
Astronomical Twilight 4:05 AM CDT 10:58 PM CDT
Moon 2:16 PM CDT (8/7) 12:12 AM CDT (8/7)
Length of Visible Light 15h 45m
Length of Day
14h 36m
Waxing Crescent, 50% of the Moon is Illuminated
Aug 7
Waxing Crescent
Aug 7
First Quarter
Aug 15
Full
Aug 23
Last Quarter
Aug 30
New

Hourly Weather History & Observations

Time (CDT) Temp. Dew Point Humidity Pressure Visibility Wind Dir Wind Speed Gust Speed Precip Events Conditions
12:53 AM 68.0 °F 62.1 °F 81% 29.76 in 10.0 mi West 8.1 mph - N/A   Partly Cloudy
1:53 AM 66.9 °F 61.0 °F 81% 29.74 in 10.0 mi WSW 8.1 mph - N/A   Clear
2:53 AM 64.9 °F 61.0 °F 87% 29.74 in 10.0 mi West 6.9 mph - N/A   Clear
3:53 AM 64.9 °F 62.1 °F 90% 29.76 in 10.0 mi WNW 5.8 mph - N/A   Clear
4:53 AM 64.0 °F 62.1 °F 93% 29.76 in 10.0 mi WNW 8.1 mph - N/A   Clear
5:53 AM 64.0 °F 61.0 °F 90% 29.78 in 10.0 mi NW 5.8 mph - N/A   Clear
6:53 AM 63.0 °F 61.0 °F 93% 29.80 in 10.0 mi NW 6.9 mph - N/A   Clear
7:53 AM 66.0 °F 62.1 °F 87% 29.80 in 10.0 mi NNW 10.4 mph - N/A   Clear
8:45 AM 68.0 °F 62.1 °F 81% 29.82 in 10.0 mi NNW 10.4 mph - N/A   Clear
8:53 AM 68.0 °F 63.0 °F 84% 29.82 in 10.0 mi NNW 9.2 mph - N/A   Clear
9:53 AM 70.0 °F 62.1 °F 76% 29.83 in 10.0 mi NNW 10.4 mph - N/A   Overcast
10:53 AM 73.0 °F 62.1 °F 68% 29.84 in 10.0 mi NW 11.5 mph - N/A   Clear
11:53 AM 73.0 °F 62.1 °F 68% 29.85 in 10.0 mi NW 11.5 mph - N/A   Mostly Cloudy
12:06 PM 73.0 °F 61.0 °F 66% 29.85 in 10.0 mi NW 15.0 mph - N/A   Mostly Cloudy
12:53 PM 73.0 °F 60.1 °F 64% 29.85 in 10.0 mi NNW 13.8 mph - N/A   Scattered Clouds
1:53 PM 73.0 °F 59.0 °F 61% 29.86 in 10.0 mi NW 15.0 mph - N/A   Mostly Cloudy
2:53 PM 73.0 °F 59.0 °F 61% 29.86 in 10.0 mi NW 12.7 mph - N/A   Partly Cloudy
3:53 PM 73.0 °F 54.0 °F 51% 29.86 in 10.0 mi NNW 18.4 mph - N/A   Clear
4:53 PM 71.1 °F 52.0 °F 51% 29.88 in 10.0 mi NW 17.3 mph - N/A   Clear
5:53 PM 72.0 °F 50.0 °F 46% 29.88 in 10.0 mi WNW 16.1 mph - N/A   Clear
6:53 PM 71.1 °F 48.9 °F 45% 29.88 in 10.0 mi NW 13.8 mph - N/A   Clear
7:53 PM 69.1 °F 51.1 °F 53% 29.87 in 10.0 mi WNW 11.5 mph - N/A   Clear
8:53 PM 63.0 °F 52.0 °F 67% 29.88 in 10.0 mi WNW 6.9 mph - N/A   Clear
9:53 PM 59.0 °F 52.0 °F 78% 29.90 in 10.0 mi West 5.8 mph - N/A   Clear
10:53 PM 55.9 °F 51.1 °F 84% 29.91 in 10.0 mi West 8.1 mph - N/A   Clear
11:53 PM 55.0 °F 50.0 °F 83% 29.93 in 10.0 mi West 6.9 mph - N/A   Clear